Location: Unspecified
(35.6961°N, 0.0000°E)
Time: 17:38:15
(UTC+00:00)

Altair - Pass Details

Date: 22 May 2019
Orbit: 1501 x 1683 km, 47.2° (Epoch: 23 June)

Event Time Altitude Azimuth Distance (km) Brightness Sun altitude
Rises 12:02:01 0° 299° (WNW) 4,885 10.1 74.6°
Reaches altitude 10° 12:05:33 10° 291° (WNW) 3,872 9.7 74.6°
Maximum altitude 12:14:03 34° 231° (SW) 2,387 9.4 74.2°
Drops below altitude 10° 12:22:17 10° 170° (S) 3,732 9.9 73.7°
Sets 12:25:39 0° 161° (SSE) 4,689 10.2 73.4°
